Ohio State University Airport
KOSU : now visible

Airfield :











YOU CAN JOIN US ON...

 
LOGIN :

Register | Disclaimer

   EN    FR    IT 

 









Legend :    VFR   Marginal VFR   IFR   Intensive IFR   Very Intensive IFR
Visi :
Ceiling :
>= 8 km
>= 3000ft
5 to 8 km
1000 to 3000 ft
1500m to 5 km
500 to 1000 ft
800 to 1500m
200 to 500 ft
< 800m
< 200 ft
Symbols :   Thunderstorms  Fog  Heavy snow  Heavy precipitations  Wind > 20 kt






- Airport Elevation : 905 ft


KOSU - Ohio State University

CURRENT METAR :
  • 282353Z 29006KT 10SM OVC090 21/11 A2995 RMK AO2 SLP137 T02110106 10239 20206 50005

EXPIRED METARs :
  • 282253Z 31008KT 10SM BKN075 OVC100 22/11 A2995 RMK AO2 LTG DSNT N SLP138 T02170111
  • 282153Z 32011G19KT 10SM SCT065 BKN075 BKN090 23/11 A2994 RMK AO2 SLP135 T02280111
  • 282053Z 29011KT 10SM BKN100 23/12 A2993 RMK AO2 SLP132 T02280117 51000
  • 281953Z 26012G21KT 10SM FEW080 BKN100 24/13 A2993 RMK AO2 SLP131 T02390128
  • 281853Z 30011G19KT 10SM BKN100 22/12 A2995 RMK AO2 SLP136 T02170122

TAF N/A
KZID FIR / North America



MET'MAP, your aeronautical weather chart ! - Copyright ORBIFLY December 2007 - Disclaimer

ORBIFLY MET'MAP TEAM :

Programming & Development : Alexandra Zaïnal
Original concept : Baudouin d'Aumeries
Technical & hardware support : Manuel Goepfert
Assistance : Marc-Olivier Méhu




SOURCES & CREDITS :

   NOAA       Earth
Advisory